This is the latest recevied weather packets stored in our database for station/object W9LRT-WX. If no packets are shown the sender has not sent any weather packets the latest 10 day(s).
| Time | Temp. | Humidity | Pressure | Rain* | Wind** | Luminosity | Snow |
|---|---|---|---|---|---|---|---|
| 1778025091 | 10° C | 69% | 1006.9 hPa | 0 mm | - | 25 W/m² | - |
| 1778024189 | 10° C | 68% | 1007 hPa | 0 mm | - | 54 W/m² | - |
| 1778023289 | 10° C | 68% | 1007.1 hPa | 0 mm | - | 46 W/m² | - |
| 1778022392 | 10° C | 68% | 1007.4 hPa | 0 mm | - | 47 W/m² | - |
| 1778021492 | 10.56° C | 64% | 1007.7 hPa | 0 mm | - | 49 W/m² | - |
| 1778020590 | 11.11° C | 60% | 1007.8 hPa | 0 mm | - | 49 W/m² | - |
| 1778019690 | 11.11° C | 58% | 1007.6 hPa | 0 mm | - | 39 W/m² | - |
| 1778018789 | 11.11° C | 58% | 1007.6 hPa | 0 mm | - | 42 W/m² | - |
| 1778017890 | 11.67° C | 56% | 1007.6 hPa | 0 mm | - | 58 W/m² | - |
| 1778016989 | 11.67° C | 54% | 1007.5 hPa | 0 mm | - | 113 W/m² | - |
| 1778016089 | 11.67° C | 56% | 1007.5 hPa | 0 mm | - | 171 W/m² | - |
| 1778015189 | 12.22° C | 52% | 1007.6 hPa | 0 mm | - | 148 W/m² | - |
| 1778014290 | 12.22° C | 56% | 1007.4 hPa | 0 mm | - | 179 W/m² | - |
| 1778013393 | 12.78° C | 58% | 1007.2 hPa | 0 mm | - | 211 W/m² | - |
| 1778012490 | 12.78° C | 60% | 1007.2 hPa | 0 mm | - | 204 W/m² | - |
| 1778011589 | 13.33° C | 62% | 1007.1 hPa | 0 mm | - | 190 W/m² | - |
| 1778010689 | 13.33° C | 65% | 1007.3 hPa | 0 mm | - | 260 W/m² | - |
| 1778009790 | 13.33° C | 65% | 1007.4 hPa | 0 mm | - | 397 W/m² | - |
| 1778008889 | 13.33° C | 65% | 1007.5 hPa | 0 mm | - | 504 W/m² | - |
| 1778007990 | 12.78° C | 66% | 1007.8 hPa | 0 mm | - | 508 W/m² | - |
| 1778007089 | 12.78° C | 66% | 1007.9 hPa | 0 mm | - | 364 W/m² | - |
| 1778006190 | 13.33° C | 69% | 1007.8 hPa | 0 mm | - | 744 W/m² | - |
| 1778005292 | 12.22° C | 71% | 1007.7 hPa | 0 mm | - | 408 W/m² | - |
| 1778004386 | 12.22° C | 70% | 1007.7 hPa | 0 mm | - | 450 W/m² | - |
| 1778003489 | 11.67° C | 72% | 1007.6 hPa | 0 mm | - | 900 W/m² | - |
* Rain latest hour (hover to see other rain measurements)
** Current wind speed in m/s (hover to see current wind gust speed)